Weather in Marv Dasht

Iran     29°51′57″N   52°47′49″E
temp.,
°C
wind,
m/s
gust,
m/s
humid.,
%
clouds,
%
prec.,
mm/h
press.,
hPa
HPBL,
m
10 april, sat
sat1001:30+14wnw013621 0.0 101211
04:30+12ne11395 0.0 101310
07:30+14n11405 0.0 101511
10:30+21ese11220 0.0 1014776
13:30+25wsw3515100 0.0 10123820
16:30+25wsw861493 0.0 10103683
19:30+20w591984 0.0 1013162
22:30+16nnw2225100 0.0 101511
11 april, sun
sun1101:30+15w1128100 0.0 101511
04:30+17sw2523100 0.0 101573
07:30+15nw4529100 0.0 101784
10:30+20nw232682 0.0 1016797
13:30+24s671878 0.0 10143253
16:30+24wsw10915100 0.0 10122430
19:30+19wsw61020100 0.0 1015155
22:30+16wnw3332100 0.0 101841
12 april, mon
mon1201:30+13ese113933 0.0 101711
04:30+13n114023 0.0 101711
07:30+14sse11425 0.0 101811
10:30+21sw2621100 0.0 10171509
13:30+24w81018100 0.0 10153377
16:30+24w881691 0.0 10133529
19:30+20sw69207 0.0 1015174
22:30+15wnw222895 0.0 101711
13 april, tue
tue1301:30+13wnw113630 0.0 101711
04:30+12nnw114635 0.1 101711
07:30+14w114172 0.0 101810
10:30+19s243971 0.4 1019864
13:30+21s973317 0.1 10161851
16:30+18s8843100 0.1 1016967
19:30+15sse225357 0.1 101769
22:30+12sse116610 0.1 101910
14 april, wed
wed1401:30+11s017152 0.1 101810
04:30+10wsw11760 0.1 101710
07:30+12nw00703 0.0 101910
10:30+18s12440 0.0 1017889
13:30+24sw4112319 0.0 10133664
16:30+23wsw11122362 0.0 10113641
19:30+17ssw69430 0.0 1014169
22:30+14sw11560 0.0 101611